カタログに戻る

LUOJIA-4 01

運用中科学SSO
NORAD 61229·PAYLOAD·🇨🇳 China
この衛星名は、まだ公式ソースで確認されていません。

打ち上げ Sep 24, 2024 から Yellow Sea Launch Area

Loading…

次のパス (今後24時間)

TLE

最新Source: Space-Track

元期: Sep 14, 2026, 22:39 UTC

1 61229U 24173C   26257.94427764  .00042569  00000-0  62854-3 0  9996
2 61229  97.3373 342.5471 0009321 165.6630 194.4890 15.55190836110653

AllMySatでLUOJIA-4 01をリアルタイム追跡

Download on the App Store